Starlink 3580

operational
NORAD ID: 51781 Int'l Des: 2022-017 Owner: SPXS Country: US Constellation: starlink
LEOCIRCULAR

Starlink 3580について

説明を読み込み中...

リアルタイム位置

3D地球を読み込み中...

次回通過

高度履歴

Altitude vs Time

uPlot chart will show altitude changes over time

軌道要素

1 51781U 22017P 25351.31019818 -.00000131 00000-0 98471-5 0 9991
2 51781 53.2205 348.9008 0001596 99.4153 260.7020 15.08836489209982
Epoch: Dec 17, 2025 • Age: 7 hours

現在のステータス

高度 545.3 km
速度 7.60 km/s
衛星直下点 53.31°N, 141.89°E
打ち上げ日 Feb 25, 2022
運用期間 3.8 years
タイプ internet

技術仕様

分類 Payload
質量 297.00 kg
乾燥質量 275.00 kg
総質量 297.00 kg
長さ 0.20 m
直径 2.80 m
スパン 9.00 m
形状 Box + pan
製造者 SPXS
バスタイプ Starlink
フェーズステータス In Orbit
所有者/国 SPXS/US

大規模コンステレーション

Loading constellations...